Location: Buffign�court
(47.8126°N, 6.0176°E)
Time: 20:07:52
(UTC+00:00)

FALCON 9 DEB - Pass Details

Date: 16 June 2021
Orbit: 422 x 432 km, 53.0° (Epoch: 31 July)

Event Time Altitude Azimuth Distance (km) Brightness Sun altitude
Rises 21:15:41 0° 229° (SW) 2,391 6.8 -12.1°
Reaches altitude 10° 21:17:49 10° 226° (SW) 1,525 5.8 -12.3°
Maximum altitude 21:21:11 57° 147° (SSE) 513 3.1 -12.6°
Drops below altitude 10° 21:24:33 10° 68° (ENE) 1,526 5.8 -12.9°
Sets 21:26:40 0° 64° (ENE) 2,393 6.8 -13.0°
